User: anonymous   Login
Location: Oshawa
(43.9000°N, 78.8670°W)
Time: 03:44:48
(UTC-04:00)
Language:

IDEFIX/ARIANE 42P - Orbit

View from above orbital plane
View from above orbital plane
View from above satellite
View from above satellite

Ground track
Ground track

The orbit data is extracted from the following two-line orbital elements,

1 27422U 02021B   17228.57544518 -.00000041 +00000-0 -31777-6 0  9999
2 27422 098.2327 225.5221 0013471 060.1872 300.0648 14.29255395797198
Epoch (UTC): 16 August 2017 13:48:38
Eccentricity: 0.0013471
inclination: 98.2327°
perigee height: 784 km
apogee height: 804 km
right ascension of ascending node: 225.5221°
argument of perigee: 60.1872°
revolutions per day: 14.29255395
mean anomaly at epoch: 300.0648°
orbit number at epoch: 79719

The dashed part of the orbit path shows where the satellite is in the earth's shadow,  

DLR